Theta_e
308 308 308 307 307 306 307 307 307 307 307 307 307 307 307 308 308 308 309 309 309 308 307 305 302 301 300 300 300 300 301 301 302 306 310 310 308 309 307 303 302 302 303 304 305 306 308 308 307 306 308 309 310 311 310 312 320 327 323 319 323 324 323 321 314 312 314 313 311 313 314 313 315 317 313 309 313 314 314 315 312 311 310 309 308 310 316 318
308 308 307 307 307 306 306 307 307 307 307 307 307 307 307 308 308 308 308 309 309 308 308 307 303 301 300 300 300 300 301 302 305 310 312 308 309 310 307 303 302 303 303 305 307 308 310 310 307 309 313 312 311 310 313 313 314 325 322 317 326 329 323 315 312 313 311 312 315 314 313 313 312 313 311 309 315 317 313 313 312 312 313 312 310 311 315 314
307 307 307 307 307 306 307 306 307 307 307 307 307 307 307 307 308 308 308 308 309 308 308 307 304 300 300 300 300 300 302 306 314 318 313 309 310 310 305 302 302 303 304 306 308 308 309 310 306 310 314 311 314 311 314 315 311 321 319 315 328 328 319 313 312 316 314 314 317 316 312 313 315 313 312 311 314 317 315 313 312 314 316 318 315 311 313 313
308 307 307 307 307 307 307 306 306 307 306 307 307 307 307 307 308 308 308 308 309 308 308 307 304 300 300 300 300 301 304 312 322 318 311 310 310 307 303 302 302 303 306 307 309 309 309 309 307 309 311 311 318 313 313 317 313 315 315 318 326 317 314 314 316 323 320 314 316 318 313 313 318 316 314 314 313 313 314 313 312 315 316 320 320 313 311 311
308 308 307 307 307 307 307 306 306 306 306 306 307 307 307 307 308 308 308 308 308 308 308 307 303 300 300 300 300 302 308 316 317 312 310 309 306 304 302 302 303 305 308 308 308 309 308 308 308 310 310 310 315 313 313 318 314 314 315 320 322 311 310 315 320 325 321 314 315 318 315 313 314 314 315 316 314 311 316 319 315 316 318 318 319 314 312 313
310 309 308 308 307 306 306 306 306 306 306 306 306 307 307 307 307 308 308 307 308 308 308 307 303 300 301 300 303 306 309 312 311 309 308 306 303 302 302 302 304 307 308 309 308 308 309 309 311 314 311 309 312 313 316 317 312 314 317 317 319 314 309 315 320 321 320 315 316 317 314 314 314 314 316 316 315 312 318 326 321 317 314 311 312 315 318 321
311 310 309 308 308 307 307 306 306 306 306 306 306 307 307 307 307 307 307 307 307 307 307 306 303 301 301 302 308 312 312 313 311 308 306 304 303 303 302 303 304 307 309 308 309 311 313 311 311 314 310 309 312 315 318 317 311 312 317 316 318 317 313 318 319 320 320 315 319 319 314 314 315 314 314 315 313 311 313 319 320 315 307 307 312 316 320 320
312 311 310 309 309 308 307 306 306 306 306 306 306 306 307 307 307 307 307 307 307 307 307 306 305 303 302 304 310 315 315 315 310 308 308 305 304 302 303 305 304 308 309 308 310 313 314 312 311 310 309 310 310 313 314 313 314 313 316 320 321 321 321 323 321 320 320 317 319 318 315 315 315 314 314 315 312 311 311 312 314 313 310 312 314 315 316 317
312 312 311 310 310 309 308 307 306 307 307 307 306 306 306 307 306 307 306 307 307 306 307 306 306 303 302 308 311 310 313 312 309 309 308 305 303 302 304 305 304 308 310 309 309 310 313 314 312 308 309 312 309 312 313 312 317 316 317 322 322 321 322 321 320 320 320 320 319 316 316 317 315 313 314 315 313 311 311 313 312 311 314 314 314 316 316 318
313 313 312 311 310 310 309 308 307 307 307 307 307 306 306 306 306 306 306 307 306 305 306 306 306 305 304 311 312 306 309 310 309 309 306 304 303 303 304 303 304 308 310 310 308 309 312 313 311 309 310 311 308 311 314 313 315 316 318 320 320 319 317 317 319 321 319 320 320 317 316 317 313 311 310 315 319 317 315 321 318 312 314 314 313 315 315 317
314 314 313 312 311 311 309 309 308 308 308 307 307 307 306 306 306 307 306 307 306 304 306 306 306 305 305 310 312 307 308 308 308 307 304 304 303 303 304 303 304 306 310 311 309 308 310 310 308 308 307 308 309 311 314 315 314 315 316 316 319 318 317 317 317 318 315 315 319 317 315 315 312 312 313 312 318 320 317 322 324 321 320 317 315 314 315 316
316 315 314 313 312 312 310 310 309 308 308 307 307 307 306 306 306 306 306 306 305 303 305 305 305 306 305 308 311 307 307 307 308 306 304 304 304 303 303 304 304 306 311 313 311 309 309 309 308 308 308 308 310 311 314 314 313 315 312 312 319 319 319 318 315 316 313 313 320 317 313 315 314 316 316 312 313 315 315 319 322 325 326 320 317 315 315 313
316 316 315 314 313 313 312 311 310 309 308 308 307 307 307 307 306 306 305 303 304 304 305 306 306 305 305 307 308 305 304 306 306 305 305 304 303 304 303 304 304 305 310 312 312 310 308 308 309 310 310 309 311 309 310 313 313 315 311 312 317 318 322 318 312 317 313 314 320 315 310 315 318 318 315 312 311 313 316 319 319 321 324 320 316 315 314 312
317 317 316 316 314 314 313 312 310 310 309 308 308 307 307 307 307 306 304 302 303 304 305 307 306 305 306 308 307 305 306 305 305 305 305 304 303 305 304 304 305 305 308 310 310 308 308 308 308 310 310 310 310 307 311 318 317 315 311 315 317 316 326 322 314 318 314 314 317 311 310 313 314 316 315 312 312 314 318 318 317 318 319 318 315 314 313 312
317 317 317 316 316 315 314 313 311 310 309 309 308 308 308 308 308 307 305 303 303 303 305 306 305 304 306 307 304 306 307 305 305 305 305 305 304 306 306 306 306 306 307 308 308 307 308 309 309 313 313 310 309 309 315 321 321 317 313 321 320 315 327 326 317 318 316 315 312 308 313 313 310 312 314 313 313 315 317 317 316 316 316 315 314 312 312 312
317 317 317 317 316 315 315 314 312 311 310 310 309 308 308 308 308 307 306 305 305 306 306 308 306 303 306 308 304 306 307 305 306 305 305 305 304 306 308 308 307 307 308 307 307 307 307 309 311 314 314 312 313 315 318 318 324 322 314 320 323 316 320 319 315 315 316 314 311 310 314 314 312 313 315 315 318 320 319 319 316 315 315 313 312 311 310 311
318 318 317 317 317 316 315 314 313 312 310 310 309 308 309 309 307 307 307 306 306 307 306 309 308 304 306 307 306 309 308 306 306 305 305 305 305 307 307 308 309 308 309 307 307 309 308 310 311 311 313 316 316 317 317 318 327 326 314 315 322 317 313 315 316 313 311 312 312 313 312 311 312 311 312 314 320 322 319 318 315 314 314 312 312 311 310 310
316 317 318 317 317 317 316 315 314 313 311 310 309 309 309 308 306 305 305 305 304 303 304 307 305 303 306 307 306 310 308 305 306 305 305 305 306 308 308 310 310 308 311 312 310 311 311 311 313 313 313 314 313 314 315 320 326 325 319 318 320 317 312 314 314 312 313 313 313 314 313 311 311 310 309 310 314 315 312 311 310 309 310 311 311 310 310 310
312 315 317 317 317 317 316 315 315 313 311 310 309 309 310 308 306 306 305 306 305 303 305 308 304 302 307 310 308 308 306 305 306 304 305 306 307 308 308 309 310 309 313 315 313 314 313 312 315 315 313 313 314 315 315 320 322 323 324 321 320 318 314 313 313 314 314 315 315 314 313 312 311 310 310 310 312 312 310 308 307 307 307 308 308 309 309 310
308 310 314 316 317 317 316 316 315 314 312 311 309 309 309 309 309 310 307 307 308 307 309 310 306 305 307 310 308 306 306 305 306 306 305 306 307 308 307 308 311 309 312 318 316 315 313 314 316 313 314 316 315 314 314 319 321 319 320 318 316 315 313 311 313 314 311 314 318 314 313 312 310 310 309 307 309 309 308 306 306 306 306 307 308 308 310 310
308 308 310 313 316 317 316 316 315 314 312 310 309 307 308 308 308 308 305 306 306 305 308 308 304 305 306 307 306 305 309 307 305 306 305 305 307 308 308 310 311 309 313 319 316 310 309 314 315 312 315 318 319 316 314 316 316 312 313 314 314 313 312 310 311 312 309 312 318 316 313 311 308 308 308 307 308 308 307 307 306 306 306 306 308 310 310 310
310 309 308 310 313 316 316 316 315 313 312 310 308 306 306 306 305 304 303 305 304 302 306 306 304 305 304 305 305 305 309 309 307 307 306 305 307 307 309 311 313 311 313 315 312 310 311 313 313 313 318 319 320 318 314 314 315 313 313 314 314 313 313 315 312 311 311 312 317 317 313 309 308 308 307 307 308 308 308 308 308 307 308 308 310 313 311 311
310 311 310 308 310 314 316 315 314 313 311 309 307 306 307 307 305 304 305 306 305 303 305 306 306 307 305 305 306 306 308 309 310 310 307 306 307 308 309 308 311 314 315 312 311 313 314 315 314 316 319 317 317 317 314 313 314 316 317 314 314 313 314 319 316 311 313 313 314 315 311 308 308 310 313 314 312 314 314 311 310 308 309 311 311 312 312 314
309 310 311 309 308 312 315 315 314 311 311 309 308 308 308 308 306 306 306 306 305 304 304 304 305 306 306 305 305 307 309 309 309 309 307 306 307 309 309 308 310 313 313 312 311 312 313 317 317 315 318 317 317 317 313 312 313 315 315 312 312 314 313 317 317 311 312 312 308 311 314 316 317 319 327 323 313 317 319 316 316 313 310 310 310 311 313 315
307 309 310 310 308 311 314 314 311 310 310 308 308 310 308 306 305 306 307 306 308 307 303 302 304 305 305 305 305 308 308 308 310 310 307 306 307 309 310 309 311 311 311 312 312 311 311 314 316 316 315 316 318 317 314 313 313 316 318 312 311 316 316 315 314 311 314 319 310 308 317 325 325 322 322 317 311 314 318 317 322 321 314 311 313 314 314 313
306 307 309 310 309 310 313 312 310 310 309 307 309 309 307 304 302 303 306 307 310 308 304 304 306 305 305 306 306 308 307 308 309 309 307 305 307 309 310 310 309 309 312 314 312 311 313 313 314 318 316 315 318 317 315 313 312 316 317 312 313 318 317 315 313 309 315 321 311 307 315 322 320 316 313 313 313 315 317 318 321 321 315 315 319 316 313 314
304 306 308 310 310 311 312 311 310 309 309 309 309 307 304 303 301 301 307 312 314 310 307 307 305 304 307 306 306 306 306 308 308 308 307 306 307 308 310 311 309 309 313 313 310 312 316 314 313 315 316 317 317 316 315 313 315 319 314 311 315 316 315 316 313 309 312 316 312 309 313 316 317 315 313 312 314 317 319 319 318 318 316 318 320 315 314 316
302 303 305 308 310 311 311 310 309 308 309 310 306 304 302 301 301 303 310 318 322 314 310 308 304 305 307 305 306 309 307 308 310 308 305 305 307 309 310 312 311 312 315 312 308 311 315 318 316 314 315 315 316 318 316 312 315 318 311 310 314 314 315 316 314 314 312 312 317 315 310 314 321 320 314 311 312 316 320 321 319 316 317 319 318 313 313 315
301 301 302 305 307 310 311 310 309 309 310 308 304 302 300 299 304 309 311 317 320 313 309 308 306 307 307 304 307 312 308 307 310 308 305 306 307 308 310 313 314 314 314 311 309 312 313 313 313 314 315 315 315 315 312 312 314 312 309 311 312 312 314 313 313 317 314 314 319 318 310 313 323 325 319 313 313 319 321 321 317 314 316 318 316 312 313 314
299 300 300 301 304 308 310 309 308 309 309 306 303 301 300 303 309 312 313 316 315 311 310 311 310 308 308 306 306 311 310 308 308 307 308 308 309 309 308 310 316 317 314 313 312 313 308 304 308 312 314 314 314 311 308 311 313 308 310 315 313 311 311 312 313 313 313 320 322 315 309 310 317 326 323 315 316 322 323 318 314 313 316 316 312 311 313 314
298 298 298 299 301 304 308 308 307 308 308 304 301 302 304 308 310 313 316 315 314 315 312 312 312 308 308 308 308 310 311 310 308 307 309 308 309 312 309 308 314 315 314 314 314 312 308 306 310 311 310 311 312 311 309 310 309 309 315 317 313 315 314 314 315 312 314 326 321 309 307 309 314 323 324 318 315 316 318 317 316 316 317 314 311 310 313 314
298 298 297 298 300 302 306 308 308 308 306 302 302 306 310 310 310 313 315 315 318 318 311 309 310 309 308 309 310 310 310 310 308 308 311 310 309 311 309 309 312 312 312 314 313 313 313 313 312 308 307 310 313 313 311 308 307 309 315 315 313 317 317 316 319 317 318 321 313 306 307 309 312 315 314 314 311 310 311 313 315 316 315 313 310 309 311 312
298 297 297 298 300 302 305 308 309 307 303 301 304 308 311 311 313 314 313 316 320 316 310 311 311 311 308 308 312 311 309 310 309 308 311 311 310 309 309 310 311 311 314 314 311 313 315 313 311 308 308 310 312 312 312 311 308 308 312 316 316 317 317 320 321 319 318 317 309 304 307 311 315 316 314 312 310 309 309 309 311 313 313 312 309 307 310 312
297 297 297 297 299 301 305 308 308 306 302 302 306 309 310 313 316 315 313 315 316 311 310 313 313 311 309 310 315 312 309 311 311 310 310 310 310 310 310 310 309 310 313 314 311 312 314 314 312 311 311 310 308 310 315 314 308 307 313 316 317 321 324 325 324 323 324 320 309 304 310 318 323 323 319 315 312 309 309 309 308 310 311 309 307 307 311 312
296 296 297 298 299 300 304 308 308 306 303 303 307 309 311 315 317 316 314 312 312 310 309 313 314 312 311 313 315 313 310 311 312 311 311 310 311 313 312 310 308 308 311 312 312 311 312 315 314 309 309 308 307 310 312 312 309 308 311 313 314 320 325 320 317 319 320 317 311 309 316 322 321 318 315 312 311 309 310 312 310 311 312 310 309 310 312 312
296 296 297 299 300 301 304 308 307 304 304 305 307 309 311 313 315 316 315 311 311 312 311 314 314 312 313 314 314 313 309 310 311 311 311 310 310 313 313 311 308 308 309 310 313 314 312 315 311 307 307 306 308 311 309 311 313 309 308 312 312 314 322 320 313 310 310 314 316 312 317 320 316 317 318 313 311 310 311 313 312 313 313 311 310 311 311 312
296 296 298 300 302 303 305 307 306 303 303 306 308 310 310 312 314 316 315 310 310 312 313 316 314 313 315 315 314 314 310 310 311 311 312 312 311 312 311 310 309 308 308 308 312 317 316 315 310 307 309 306 305 309 309 308 310 309 311 314 309 309 318 321 316 314 313 316 318 313 316 323 318 320 325 320 316 314 312 311 311 311 310 309 309 308 310 312
296 297 299 301 303 304 305 306 304 303 304 306 308 310 310 310 312 315 313 309 308 311 313 317 316 314 315 315 316 317 313 312 313 312 313 314 314 313 310 310 311 309 308 308 311 316 316 314 310 305 307 307 305 308 310 307 305 308 311 310 309 313 317 315 315 319 317 317 323 318 314 319 319 320 326 323 320 319 312 309 311 311 309 309 308 306 309 311
296 298 301 302 300 301 305 305 303 303 305 306 308 310 311 310 311 312 312 309 309 311 312 315 317 314 312 313 315 316 313 314 314 312 313 314 314 314 311 311 311 310 309 308 310 312 313 314 313 305 304 308 307 308 311 309 305 306 306 305 308 313 316 316 315 318 318 317 322 321 315 320 322 321 325 326 328 325 314 310 312 311 309 310 309 306 308 310
296 299 302 302 298 299 303 303 301 302 305 306 308 309 311 311 310 310 311 309 309 311 312 314 316 315 312 310 311 312 312 314 315 313 314 316 315 314 313 312 312 312 309 308 309 311 311 314 314 307 303 307 310 309 310 310 308 306 307 308 308 307 311 315 313 314 320 320 321 321 319 323 322 319 323 327 331 328 317 313 313 310 309 309 306 304 306 308
296 298 301 301 298 299 301 300 300 302 303 305 307 307 308 309 309 309 309 307 307 309 311 312 313 313 312 310 310 310 310 312 313 313 314 315 315 313 311 312 314 312 309 308 309 310 312 314 315 311 307 309 311 308 306 308 309 307 307 309 309 307 311 315 312 311 314 317 319 319 317 319 319 319 320 319 324 327 320 315 314 310 309 310 305 302 304 307
295 297 300 299 297 299 301 300 301 302 303 304 305 305 305 306 308 308 307 307 305 306 309 310 310 312 312 311 311 310 309 311 311 311 314 313 312 312 312 312 313 310 310 310 308 309 314 316 317 315 311 309 307 303 301 304 306 306 307 309 310 310 313 316 315 313 311 311 313 315 315 315 316 317 317 314 317 321 316 312 314 312 310 311 308 302 303 305
295 296 297 297 298 300 301 301 302 302 302 303 303 303 303 303 305 305 305 306 304 304 307 308 308 310 310 310 311 310 309 311 310 310 312 311 310 313 316 316 313 309 310 310 307 309 313 313 314 314 311 307 303 301 299 300 303 305 306 306 308 309 310 314 316 314 314 313 311 313 314 314 314 316 317 315 312 313 312 310 311 312 311 313 312 306 304 305
294 294 295 296 298 300 301 301 302 302 302 303 302 301 301 302 303 304 305 305 304 305 307 307 308 310 310 310 310 310 310 312 311 309 309 309 310 314 317 316 313 309 310 312 310 311 312 313 313 312 313 311 307 305 303 301 302 307 309 307 305 306 307 309 309 309 310 313 315 316 314 312 316 317 316 315 314 315 315 309 306 310 313 314 312 305 303 305
294 293 294 296 297 299 300 300 301 301 301 300 299 299 300 301 303 303 304 304 303 304 305 306 307 308 308 308 309 309 310 311 311 310 309 307 308 312 312 311 309 309 311 313 313 312 313 316 314 311 313 314 312 313 311 307 305 306 308 308 306 306 306 308 310 309 308 311 313 313 312 311 314 315 314 315 316 316 315 307 304 308 312 312 309 304 303 304
293 294 294 296 297 298 299 299 298 298 297 297 297 298 299 301 302 302 303 304 303 303 304 305 306 306 306 307 308 309 309 310 310 310 309 307 308 309 308 305 306 307 309 311 310 310 312 316 315 312 314 314 313 315 315 311 310 309 309 308 306 306 306 308 311 311 310 312 311 310 311 312 313 312 312 314 315 315 313 308 306 307 309 308 305 302 302 304
293 294 294 295 296 297 298 297 296 294 294 295 296 297 299 299 299 301 303 304 303 303 304 304 305 306 307 308 309 309 308 309 308 309 309 308 308 309 306 303 305 306 306 306 306 307 308 311 314 314 314 312 311 314 314 311 310 311 310 308 306 305 305 307 309 309 311 313 311 310 311 312 311 310 309 311 313 314 313 310 309 308 308 307 303 301 301 302
292 294 294 294 294 295 296 295 293 292 293 295 296 297 298 298 298 299 302 303 302 302 303 304 305 306 307 308 308 309 309 309 308 308 309 308 309 309 306 305 305 305 305 303 304 308 310 310 312 313 312 312 309 309 311 310 308 308 309 309 307 306 305 306 307 308 311 311 311 314 316 312 310 310 308 309 311 313 313 311 310 309 308 306 304 303 301 302
292 293 294 293 294 294 294 293 292 293 294 295 296 296 297 297 297 298 299 300 299 298 300 303 304 304 304 305 307 308 309 310 309 308 309 309 309 308 308 308 306 304 303 302 304 309 310 310 312 311 310 311 310 307 308 309 308 308 308 307 307 306 305 306 307 307 309 310 310 315 316 311 308 308 307 308 312 314 313 311 310 308 308 308 307 304 302 301
291 292 293 293 293 294 293 293 293 294 294 294 295 296 296 296 297 297 297 297 296 296 298 300 300 300 299 300 302 305 307 308 309 309 309 309 309 309 308 309 308 304 302 303 304 306 307 309 311 308 308 310 310 308 307 308 308 308 308 307 307 306 305 305 306 307 308 308 308 310 312 309 307 306 306 307 311 313 312 312 311 310 309 311 309 306 302 301
291 291 292 291 292 293 293 293 293 293 293 293 294 295 295 296 296 295 295 296 296 296 298 299 298 297 297 297 298 300 303 305 305 306 307 307 308 308 308 308 309 307 304 303 304 304 306 309 309 307 308 309 309 309 308 306 305 306 306 306 306 306 305 304 305 306 306 307 308 309 310 309 307 306 307 308 309 309 309 309 309 307 308 309 309 307 304 301
290 290 291 291 291 292 292 292 292 292 292 293 293 294 293 293 294 294 294 295 296 296 297 298 297 297 297 296 297 299 301 302 302 302 302 303 304 305 307 307 308 308 306 304 304 304 305 308 308 307 308 309 309 308 306 304 306 306 305 305 304 303 304 304 304 305 305 306 308 308 308 308 307 307 307 307 307 307 307 306 305 305 306 306 305 304 304 302
Wind_Speed
10 10 11 11 11 12 12 12 12 13 13 14 15 15 15 15 16 16 16 16 16 16 16 16 15 14 14 15 17 18 21 22 21 15 9 9 9 8 8 9 6 6 5 6 6 1 2 4 4 8 4 2 1 1 1 1 2 3 3 3 2 3 4 5 5 5 4 2 4 3 1 5 4 4 3 4 3 4 5 6 5 5 7 9 9 8 7 16
11 10 11 11 11 12 12 13 13 13 13 14 15 15 15 15 16 16 17 16 16 16 16 16 15 13 13 14 16 17 21 22 19 16 13 11 9 8 8 7 6 5 4 3 4 3 3 2 4 6 5 2 1 1 1 1 2 2 3 2 4 5 5 5 5 4 3 3 4 3 1 4 5 3 1 3 7 5 5 7 4 7 11 11 10 6 12 17
11 11 11 11 11 12 12 13 13 13 14 14 14 16 16 16 16 16 17 17 17 16 16 16 14 13 12 13 14 16 20 18 11 9 5 5 9 8 6 5 5 4 2 1 3 3 2 2 3 3 4 1 1 1 2 0 1 2 3 2 6 6 5 4 5 6 5 3 3 3 2 2 5 3 0 3 7 6 8 8 4 8 11 9 6 7 11 13
12 12 12 12 12 12 12 13 13 13 14 14 14 15 16 16 16 16 17 17 17 17 16 16 13 12 11 11 12 15 15 9 4 3 2 6 7 6 5 3 3 3 1 1 2 3 2 2 1 1 3 0 2 2 2 2 1 1 4 5 6 4 3 5 6 6 5 3 4 3 1 4 6 2 2 2 5 8 10 9 9 11 10 7 5 6 8 10
11 12 13 13 13 12 12 13 13 14 14 14 14 15 16 16 16 16 17 17 17 17 16 15 13 11 10 10 11 12 9 4 2 1 4 6 5 4 3 2 2 2 1 1 2 2 2 1 2 3 3 1 1 2 3 4 3 2 4 6 6 3 3 6 5 5 4 2 2 2 3 5 2 2 4 5 5 9 6 7 11 12 10 9 7 6 7 8
11 12 12 13 12 13 13 13 13 14 14 15 15 15 15 16 16 16 16 17 17 17 16 14 12 10 8 9 8 6 3 2 2 2 5 5 4 3 3 3 3 2 1 1 1 1 1 3 4 2 2 0 3 3 4 3 3 2 4 4 5 5 4 5 3 5 5 5 4 3 3 2 2 5 5 8 13 13 6 5 9 9 10 10 7 6 7 9
11 11 12 12 12 13 13 14 14 14 14 15 15 15 15 16 16 17 16 17 17 16 16 14 12 10 8 7 4 3 1 5 6 5 7 5 4 3 4 5 4 3 2 0 1 2 3 4 2 3 3 1 3 4 4 1 2 3 5 5 5 5 6 5 2 4 6 6 7 3 2 2 3 6 2 7 17 16 10 6 6 6 6 7 5 6 8 10
12 12 13 12 13 14 14 14 15 14 14 15 15 15 15 16 16 16 16 17 17 16 15 14 12 8 8 6 1 2 2 7 8 7 9 6 4 4 4 4 4 4 2 1 0 2 3 4 3 3 2 2 3 3 3 1 1 5 7 5 3 3 5 5 3 4 5 6 5 2 6 7 7 3 4 13 19 14 10 9 8 8 7 7 9 10 9 9
14 13 13 13 14 16 16 15 15 15 14 15 16 15 16 16 16 16 15 16 16 15 15 13 11 7 6 4 3 2 5 7 6 7 9 7 6 5 4 3 4 4 4 2 0 3 3 3 4 3 3 4 3 1 3 3 3 6 6 3 3 5 6 5 6 7 7 5 4 4 10 8 4 2 7 18 20 11 6 8 8 7 9 10 10 11 9 9
17 16 15 16 16 16 17 16 16 16 15 15 16 16 16 16 16 16 15 15 15 14 14 12 10 7 5 2 3 2 6 4 5 8 9 8 6 4 3 3 4 4 5 2 0 2 3 4 4 3 3 2 2 2 3 5 3 4 3 5 6 8 7 5 7 7 4 4 5 7 11 6 1 1 6 14 11 4 2 5 6 6 9 10 9 10 9 9
19 19 19 18 18 17 17 17 17 17 15 15 16 16 17 17 17 17 16 15 14 13 13 11 9 7 4 1 4 4 5 3 5 8 9 8 6 4 3 4 4 5 5 2 2 1 2 5 5 3 1 1 1 2 3 4 2 1 1 6 8 7 8 6 7 6 3 3 6 7 9 6 1 2 12 16 5 3 3 7 6 6 8 9 9 9 7 7
21 21 21 21 20 19 19 18 17 17 16 16 17 17 17 18 18 17 16 15 13 12 11 9 7 5 3 1 6 12 8 4 6 8 9 8 6 5 3 4 3 4 5 3 3 2 2 3 4 3 2 1 1 1 3 2 1 1 3 5 9 7 8 7 4 4 5 3 5 6 6 6 5 10 19 16 2 1 5 8 8 7 8 7 8 8 6 8
23 23 23 23 23 21 21 19 18 17 18 17 17 18 18 19 19 18 17 15 13 11 9 6 5 4 2 3 7 14 16 13 10 9 10 9 7 5 4 4 3 3 3 3 3 2 1 2 4 4 1 2 1 1 1 2 2 1 2 1 6 7 7 5 0 1 5 3 5 5 5 7 9 16 19 11 3 2 6 8 8 7 7 7 7 7 7 8
26 25 24 24 24 23 22 21 19 17 18 19 19 20 20 19 20 20 17 16 13 10 8 4 4 1 1 6 6 8 14 15 14 14 12 11 9 5 5 5 2 3 3 3 4 3 1 1 2 2 0 2 1 1 2 4 2 1 1 0 3 3 5 6 0 5 5 2 3 5 4 10 10 13 14 8 5 5 7 10 8 8 7 7 7 7 8 8
28 27 27 26 25 25 24 22 20 18 18 19 20 21 21 20 21 20 18 17 12 9 7 5 5 2 1 8 9 7 10 11 15 18 15 13 11 7 6 7 4 4 4 4 5 3 2 1 2 1 2 1 1 1 2 4 3 1 1 3 3 3 5 8 2 7 5 1 2 5 3 11 12 11 10 6 5 7 9 11 8 8 9 8 8 8 8 9
30 30 29 28 27 26 25 24 21 19 18 19 21 23 23 25 27 22 19 16 12 9 5 4 6 5 2 6 4 4 8 9 12 16 15 14 12 8 8 8 4 5 6 4 5 4 3 2 1 2 1 0 3 3 2 4 4 2 2 4 3 4 4 6 3 3 3 2 2 4 4 9 9 8 6 1 6 7 8 11 9 9 9 9 8 8 8 8
29 31 31 30 29 27 26 25 23 20 19 20 22 24 25 30 30 24 19 15 11 8 5 3 4 4 3 4 1 3 7 10 10 13 16 14 11 9 9 6 3 5 5 4 4 3 2 2 0 1 1 2 2 4 2 3 5 3 1 4 5 4 3 4 5 3 2 3 4 4 6 13 14 11 10 4 5 6 9 12 12 9 9 9 8 8 8 8
23 28 31 32 31 29 28 26 23 21 20 20 21 24 29 30 24 16 13 10 6 3 4 4 2 2 6 5 4 3 5 9 9 13 16 13 10 11 8 4 4 4 4 3 1 2 1 1 2 1 2 1 2 5 3 6 5 4 4 4 5 4 5 6 6 2 3 3 5 4 8 17 20 16 16 12 7 9 14 14 13 11 10 10 8 9 9 9
20 22 26 31 32 31 29 27 24 21 19 19 21 26 26 19 11 4 4 7 5 3 3 6 6 3 4 4 3 3 6 8 9 12 15 12 11 11 7 4 5 4 2 1 1 2 2 2 3 2 2 4 7 8 10 9 7 6 6 5 5 5 6 6 5 4 5 3 6 8 11 17 20 17 17 15 7 10 15 12 10 10 9 9 8 8 9 10
20 20 21 25 31 32 30 28 25 20 18 18 19 21 14 5 3 2 1 5 8 7 3 6 11 5 2 1 4 7 8 8 6 9 15 14 13 11 4 3 4 3 2 4 3 2 4 3 4 8 8 10 12 13 11 6 5 4 3 4 5 5 8 4 2 4 4 3 7 8 11 16 19 18 19 18 8 9 14 12 11 10 9 9 9 9 9 10
21 20 20 21 25 30 31 28 25 21 16 15 13 9 2 1 2 3 3 6 13 17 14 8 12 9 4 2 9 11 6 3 2 5 15 15 14 10 2 3 3 1 4 4 3 0 4 5 12 13 11 10 9 10 8 4 4 3 4 5 5 5 8 5 1 2 2 2 5 4 9 17 19 17 19 17 11 12 13 11 12 11 9 8 8 10 9 7
20 20 21 20 20 25 30 29 26 21 15 13 8 1 3 3 3 1 4 6 11 16 19 14 10 11 8 2 8 10 4 2 5 4 14 14 9 7 4 5 5 4 4 4 3 1 2 8 16 11 7 5 2 5 8 6 5 3 3 2 4 4 6 6 2 2 0 2 4 5 8 18 19 16 18 16 11 11 9 9 10 9 8 8 8 9 7 5
20 20 20 19 18 19 25 29 25 18 16 13 8 6 4 4 7 2 5 5 9 10 13 13 12 12 10 9 10 11 4 6 8 7 16 16 6 5 5 7 7 4 4 6 7 5 5 10 13 7 8 7 3 4 8 5 3 4 4 3 5 3 1 4 3 3 2 3 4 5 7 14 15 12 12 11 7 7 6 7 8 7 8 8 7 7 7 7
21 19 20 20 18 16 20 26 20 16 18 17 13 13 9 6 9 7 4 3 8 6 10 16 14 10 12 13 12 15 8 8 7 7 19 18 6 4 5 7 7 4 6 11 11 10 10 9 3 6 9 9 6 4 7 6 4 5 6 7 6 4 4 5 3 4 3 2 3 4 6 9 8 6 7 6 4 5 5 4 6 6 7 5 4 5 6 7
23 20 20 19 18 16 15 18 16 17 17 13 14 16 10 5 7 6 0 2 6 5 6 11 8 6 13 12 12 14 6 7 7 7 19 20 10 5 3 4 5 7 10 9 8 9 11 7 7 9 6 8 7 5 7 8 5 4 6 11 9 5 5 2 3 5 4 4 3 3 5 7 4 4 8 6 5 7 5 4 6 7 5 4 5 4 4 6
24 23 21 18 19 15 10 10 13 18 12 10 12 10 7 6 5 7 4 2 7 3 2 5 4 6 10 8 9 9 1 6 4 7 18 20 12 5 2 3 2 6 8 6 4 5 5 3 6 8 7 7 7 6 7 8 5 3 5 8 7 6 6 3 2 2 1 4 4 3 1 6 7 7 9 5 6 9 8 5 7 6 4 5 6 5 6 6
24 23 22 19 18 10 10 6 9 16 7 8 13 8 9 9 8 7 1 2 6 1 4 1 0 3 5 6 9 8 3 4 2 5 10 11 8 1 2 6 3 3 5 4 3 3 2 4 4 6 6 7 7 6 7 9 7 4 3 5 8 7 6 5 4 2 2 4 4 1 3 3 7 8 7 4 6 9 8 7 8 6 6 6 5 6 7 6
25 24 23 20 17 13 14 9 12 15 7 9 13 10 12 12 8 3 2 0 4 3 4 1 1 2 2 2 5 5 2 2 4 0 1 2 3 0 3 7 5 5 5 6 6 3 4 6 8 9 6 6 6 4 8 11 5 4 3 6 6 6 5 5 5 2 1 3 4 3 2 1 6 8 5 3 5 9 8 8 9 8 7 6 6 7 7 6
27 25 24 21 19 18 20 19 14 14 14 16 16 15 18 14 6 3 1 3 2 2 2 1 2 3 4 3 1 2 2 3 2 2 4 1 1 2 3 6 4 4 4 5 7 3 2 5 9 9 6 7 4 1 7 11 5 3 6 6 5 5 4 4 4 3 2 2 5 5 4 2 6 7 4 1 3 6 8 8 8 8 7 7 7 7 7 6
28 26 26 23 22 19 17 21 17 14 16 17 18 22 22 10 4 4 2 4 2 1 1 3 1 3 4 4 1 3 3 3 2 2 3 1 2 4 1 3 4 2 3 3 4 3 1 1 2 4 4 6 4 3 2 6 6 7 7 6 5 4 4 3 2 3 2 3 6 5 4 2 4 6 4 3 4 6 5 5 6 6 7 7 7 7 7 6
29 28 27 24 22 20 12 13 16 17 17 20 24 24 16 4 2 4 5 3 3 1 1 4 2 3 5 5 1 2 3 3 3 2 1 1 1 2 1 1 3 2 2 5 4 1 2 1 2 2 3 5 5 5 3 3 5 6 5 4 2 2 3 3 3 3 1 5 5 2 1 2 4 7 5 5 5 5 6 5 7 8 8 8 8 7 7 6
31 30 28 24 20 18 14 12 18 21 21 27 25 14 7 2 2 4 4 3 2 1 1 1 1 3 3 2 1 1 1 1 1 2 2 1 2 4 4 4 4 2 3 7 4 1 2 4 3 1 2 5 6 5 3 3 3 4 4 5 3 2 3 2 2 1 3 5 2 1 1 2 7 10 10 11 11 9 8 7 9 10 10 9 8 8 6 5
33 32 29 24 19 17 18 19 21 24 26 27 17 4 2 4 5 8 6 2 2 1 2 3 3 4 4 2 1 3 2 2 3 2 1 2 2 4 6 6 4 1 2 4 4 2 3 3 2 3 2 4 8 7 3 2 3 5 5 5 4 2 2 4 3 2 4 3 1 1 2 3 5 7 11 16 15 10 8 9 9 10 12 11 10 8 6 6
34 32 28 23 19 18 18 19 23 28 29 21 9 2 4 6 5 9 10 7 3 1 2 4 3 4 3 2 3 4 2 3 5 5 2 3 3 3 5 8 7 1 2 1 3 5 5 5 4 7 3 5 10 7 4 6 6 5 5 5 5 5 4 5 4 4 4 3 1 2 2 4 4 4 7 10 10 7 5 8 8 8 8 8 7 6 6 6
33 31 28 22 18 17 14 17 25 33 29 14 5 5 8 8 4 4 8 8 5 3 4 3 5 3 2 2 4 4 3 4 3 5 3 4 4 4 4 7 9 5 2 3 2 3 6 6 3 2 1 6 8 2 3 6 4 3 3 4 3 4 4 2 3 5 3 1 3 2 4 5 4 6 9 6 7 8 6 6 6 6 5 5 6 6 6 6
33 32 26 17 16 17 13 15 28 37 26 10 5 7 8 7 4 2 3 5 5 6 7 3 4 4 3 2 3 4 3 3 2 3 3 4 4 5 5 6 11 12 9 6 2 2 4 4 1 1 2 3 5 2 3 3 3 3 3 4 5 3 6 3 2 1 3 2 4 3 4 6 4 7 7 2 4 7 4 5 6 6 4 5 6 7 6 7
32 29 20 15 17 17 13 16 32 34 17 7 7 7 6 6 4 3 2 2 2 4 7 4 4 6 4 3 3 4 3 2 3 3 2 3 4 6 7 6 8 16 17 11 5 3 4 3 2 1 0 2 3 3 3 0 3 5 3 5 3 2 4 3 1 3 3 4 5 2 6 6 3 5 5 5 3 6 5 6 5 5 4 6 8 7 7 7
28 21 13 12 16 15 11 20 34 25 8 6 8 6 6 6 4 3 2 2 1 1 4 5 5 6 6 5 3 4 5 3 4 4 3 3 4 4 7 5 7 16 19 13 5 3 3 3 3 0 1 2 1 3 1 1 2 4 3 3 2 3 2 2 2 2 1 4 5 3 4 4 5 5 4 4 7 8 7 7 6 7 8 8 8 7 7 6
18 10 5 8 19 18 10 24 27 14 4 6 8 8 6 5 4 3 2 0 2 4 4 5 4 2 4 7 5 4 6 6 5 4 3 4 4 4 6 5 6 11 15 14 8 4 2 3 3 0 1 1 1 2 4 4 2 1 1 2 1 2 3 3 3 3 3 3 3 4 2 3 7 7 6 9 10 9 9 9 9 11 10 9 9 7 7 7
11 4 3 5 21 18 9 17 10 4 4 4 6 5 3 4 5 4 5 4 2 3 4 3 4 4 4 6 5 4 5 7 7 5 4 4 4 4 5 5 4 4 9 14 10 3 0 4 3 0 1 1 2 4 7 8 7 4 3 3 2 1 2 1 1 2 3 3 2 3 5 5 6 5 8 11 10 10 11 11 11 11 10 10 9 7 7 7
7 3 2 5 19 12 6 6 1 2 4 3 4 3 4 4 3 3 7 8 5 3 2 3 6 7 6 5 5 4 5 5 6 5 4 5 5 5 4 5 6 5 6 8 8 5 3 4 3 2 2 4 4 4 3 5 5 6 4 5 5 4 4 2 4 2 2 3 4 3 7 7 4 4 8 10 8 9 10 10 10 10 11 11 9 8 8 8
2 1 5 13 16 3 7 2 3 3 2 4 3 2 4 6 5 4 5 6 5 3 1 2 5 6 6 6 5 5 5 3 4 5 4 6 9 7 4 3 6 7 7 5 7 5 4 2 2 3 4 5 3 2 2 2 1 3 2 2 3 3 3 4 6 4 2 3 3 2 6 5 2 3 6 7 6 6 8 9 9 9 11 10 9 8 7 8
1 4 12 16 10 6 6 1 4 4 4 5 5 4 4 4 4 5 5 5 4 3 2 2 3 6 6 5 4 5 4 3 5 7 5 6 9 8 5 6 6 7 5 3 3 3 3 2 3 3 3 1 1 2 2 2 2 1 3 4 5 4 3 4 4 3 3 4 3 1 7 4 1 2 3 3 3 3 5 8 9 9 9 8 8 7 7 7
3 5 7 10 6 7 4 2 4 4 5 6 7 7 4 1 2 5 5 4 3 2 4 5 5 7 6 6 6 7 7 5 7 10 10 8 7 5 6 8 8 8 6 3 3 5 4 4 4 3 3 3 2 1 1 1 1 3 4 6 9 8 4 1 1 1 3 7 9 6 10 5 0 4 3 1 2 4 5 7 8 8 8 7 7 6 7 7
3 3 3 6 6 5 3 1 1 3 3 5 7 9 7 3 3 4 5 6 6 4 4 5 5 5 4 4 5 6 9 9 7 8 9 9 7 3 5 9 9 8 5 2 1 3 4 5 6 6 7 8 5 4 4 3 2 3 3 6 11 13 12 5 2 3 6 6 10 10 11 7 3 4 4 3 4 5 6 7 6 7 7 7 6 6 7 7
2 2 3 4 3 2 2 1 2 1 3 5 7 6 6 5 4 3 4 6 8 6 5 7 5 4 3 3 6 7 10 12 9 4 4 7 7 4 4 6 7 5 2 2 2 1 1 4 7 9 11 11 8 6 5 4 5 5 7 11 13 15 17 9 3 6 6 3 8 11 10 11 11 10 9 7 6 7 7 7 8 8 8 7 7 7 8 8
0 1 2 3 3 3 3 2 4 4 3 4 4 4 5 7 9 5 4 4 5 4 5 4 3 3 4 6 8 9 9 11 10 8 9 9 8 5 3 1 4 5 2 1 0 3 2 4 8 11 13 12 9 7 4 3 7 10 11 14 14 14 15 14 12 11 7 3 11 7 7 17 19 16 17 11 8 8 8 9 10 9 9 8 6 6 8 8
0 1 1 1 1 3 3 4 7 8 7 4 2 4 8 8 8 6 3 2 5 5 4 3 4 8 10 10 9 8 8 9 9 10 12 12 11 9 5 2 4 5 5 2 1 3 3 4 6 8 12 13 12 9 6 5 7 7 9 13 14 14 16 19 22 17 11 11 14 9 14 23 19 16 21 14 8 10 10 10 10 9 8 6 6 7 9 10
1 2 3 1 0 3 4 5 8 9 7 5 3 4 7 9 8 6 3 3 6 6 5 6 8 10 11 11 11 9 9 9 9 11 12 13 13 11 9 7 4 2 5 4 1 2 3 3 4 6 10 14 15 11 8 8 8 9 10 11 11 14 19 23 24 20 17 20 14 4 12 20 14 16 19 9 5 9 9 8 8 8 8 7 8 10 10 11
1 1 2 3 2 3 4 3 4 5 5 4 4 5 6 8 9 7 4 4 7 8 6 7 11 13 14 14 12 11 11 12 12 12 11 14 13 9 8 9 5 1 2 4 2 1 3 3 2 2 5 12 16 14 10 10 11 13 13 10 10 13 17 20 19 15 15 17 13 11 17 18 13 14 13 8 5 7 7 8 9 9 9 9 10 11 11 12
4 4 3 3 4 4 3 2 1 3 4 2 3 5 5 6 7 10 9 5 7 8 6 9 13 14 13 14 13 14 15 14 17 17 12 11 11 7 7 8 8 5 3 3 2 3 5 4 1 3 5 12 14 14 11 7 7 11 13 13 15 15 12 12 12 12 14 14 13 15 19 17 12 8 8 11 8 8 9 11 10 9 9 10 11 12 12 13
6 6 3 2 3 3 4 4 2 3 4 2 3 5 6 7 8 10 9 4 4 6 7 10 13 11 11 15 14 14 14 12 14 17 14 12 11 8 5 2 4 7 5 4 3 3 6 6 4 5 8 13 12 9 6 1 4 12 14 15 19 17 11 9 11 14 16 15 13 15 16 13 10 8 11 15 12 9 12 11 9 9 10 11 13 13 13 14
Wind_Direction
315 317 319 323 325 326 329 332 332 331 330 330 332 332 332 332 332 333 333 333 331 327 326 321 318 319 318 321 322 322 320 320 320 313 280 257 253 244 273 302 300 302 308 312 318 290 94 68 28 15 39 113 87 133 336 344 68 57 90 138 211 201 198 194 197 196 180 237 235 240 169 176 249 289 315 331 294 266 264 258 260 275 265 254 269 285 220 180
308 311 314 317 319 321 323 327 329 329 328 327 329 330 330 331 330 331 332 334 333 328 327 324 322 322 321 323 323 323 321 321 316 297 275 255 244 244 270 297 293 297 316 329 355 48 84 10 342 19 54 101 315 78 34 338 102 104 126 167 225 203 212 202 193 206 194 216 224 252 240 197 229 246 332 294 279 308 289 268 264 273 271 277 279 227 186 178
307 307 310 312 316 318 318 321 324 326 326 325 325 327 329 329 329 329 330 332 333 331 328 325 325 324 324 325 325 326 323 323 317 294 280 213 215 238 269 287 287 299 332 36 21 30 75 291 306 43 67 81 273 96 97 312 182 177 136 199 246 216 237 239 198 206 213 192 192 252 260 242 252 225 193 263 282 290 257 256 237 250 259 273 272 187 179 182
307 306 307 308 310 313 315 315 318 321 322 323 322 323 325 327 328 327 327 329 331 331 329 326 327 324 325 327 327 327 325 329 316 286 117 156 195 228 261 274 286 293 311 17 347 315 285 286 292 89 84 67 308 58 156 234 202 187 151 199 235 194 246 251 201 193 199 173 175 213 321 294 264 222 215 239 304 280 244 239 220 231 240 234 241 200 188 189
307 306 306 307 307 309 312 312 313 315 318 320 320 320 321 324 326 326 326 326 328 330 329 328 327 326 326 328 328 329 335 347 309 212 145 155 185 217 240 243 259 256 232 322 299 280 270 275 61 53 65 122 320 63 217 224 141 186 220 214 218 166 246 252 200 184 168 140 200 238 291 267 251 240 229 195 242 255 229 214 212 222 225 209 210 204 194 196
303 305 303 303 305 308 310 310 311 311 312 315 316 317 318 320 322 324 325 324 326 328 328 328 329 330 327 330 331 335 354 272 269 168 168 172 187 202 201 215 224 233 231 281 243 108 86 71 59 61 68 113 189 181 230 229 123 216 263 257 237 195 228 245 181 196 162 137 211 234 250 213 40 286 236 200 227 239 224 190 205 217 213 207 201 185 191 203
295 302 307 302 300 307 308 307 311 312 312 313 312 312 314 316 318 321 323 322 323 326 327 329 331 331 332 338 339 10 77 250 262 215 204 194 197 202 198 220 209 212 225 231 143 118 96 90 99 159 116 324 212 208 228 209 94 207 256 283 257 205 213 226 177 203 174 178 215 210 284 248 243 279 284 230 239 243 250 242 228 237 228 217 219 211 210 212
295 295 301 299 299 308 309 309 316 314 312 313 311 309 310 312 314 317 320 320 321 324 326 328 329 335 342 344 29 5 293 250 258 227 217 211 208 207 209 221 206 212 196 193 201 156 123 118 177 180 147 236 195 192 195 139 45 213 234 264 264 236 236 251 272 254 223 222 216 181 270 248 215 251 303 260 254 252 250 255 248 249 259 248 246 242 229 224
297 290 291 296 303 307 309 315 320 315 314 315 311 308 307 308 310 313 317 319 321 321 324 328 326 334 340 339 87 353 264 238 244 220 211 209 209 210 219 219 208 211 180 186 226 166 180 175 198 194 191 210 184 225 182 168 247 217 223 266 279 279 279 277 271 260 249 237 166 196 261 260 222 261 277 256 257 265 249 247 246 232 244 245 245 244 230 228
295 292 292 298 304 306 309 315 316 314 316 316 312 308 305 305 306 308 313 316 319 320 322 326 322 331 329 303 106 272 253 220 213 202 198 202 208 214 219 220 213 205 186 186 194 174 184 179 181 170 166 181 206 246 168 170 212 198 223 276 267 276 284 257 247 252 241 233 173 203 261 275 247 246 265 254 243 251 251 253 246 208 229 237 235 239 227 226
292 293 294 298 302 305 309 312 314 312 310 314 314 308 304 304 302 302 307 310 315 319 319 322 318 320 319 215 149 225 240 201 203 195 197 205 208 220 217 221 219 202 195 168 151 167 153 164 151 136 163 194 217 250 213 200 192 154 335 297 280 293 293 250 244 253 196 237 189 185 261 281 57 192 242 252 223 138 249 272 265 214 230 238 232 238 231 230
288 290 292 294 297 301 304 308 314 314 312 317 316 311 306 302 300 298 301 305 310 314 315 321 311 299 321 289 219 234 237 218 214 203 207 208 200 211 212 219 219 199 204 176 158 151 139 165 139 149 230 177 200 276 239 230 101 16 26 312 294 328 308 259 252 247 172 208 186 159 279 263 196 223 238 248 246 107 256 264 264 237 236 239 234 240 234 237
285 287 289 291 292 295 299 302 309 316 319 320 318 318 311 303 301 297 299 304 306 308 310 313 292 282 312 271 240 240 243 242 242 231 221 214 202 202 198 206 207 192 204 174 158 141 153 200 157 176 198 127 214 242 137 43 61 289 39 323 302 341 311 266 41 157 154 181 175 140 297 258 216 234 245 255 244 233 253 251 249 239 238 240 236 239 241 242
281 283 285 288 289 291 293 296 302 310 319 321 319 318 311 306 302 296 299 301 301 302 300 290 268 273 198 247 271 263 245 240 237 231 222 213 194 181 186 180 164 177 176 136 127 105 121 186 140 157 306 152 219 301 19 7 25 283 330 323 319 327 282 284 124 139 146 190 158 128 268 266 257 251 253 256 214 201 243 252 242 235 236 238 238 235 243 244
277 279 280 282 285 287 288 291 296 300 310 318 318 313 309 307 303 298 297 295 297 295 281 262 235 190 326 271 275 261 231 224 225 224 222 214 194 179 179 163 130 139 141 123 115 106 116 108 104 132 274 272 60 33 327 339 5 33 266 297 321 211 267 301 258 162 159 198 149 139 242 272 272 264 262 251 199 192 232 250 240 236 237 235 242 236 241 248
274 275 276 278 280 282 284 286 290 294 301 309 313 309 305 310 310 302 293 290 289 277 262 256 221 186 286 285 266 226 210 211 224 221 217 212 204 191 165 150 122 125 133 123 117 118 110 79 75 171 192 1 88 93 23 343 328 346 222 254 259 210 276 318 291 202 172 135 204 207 243 278 273 267 285 196 163 187 227 250 242 235 239 236 241 239 239 249
275 273 272 274 275 277 279 281 285 290 296 302 307 305 305 312 310 296 285 282 271 250 222 227 198 172 257 263 245 242 208 205 214 205 201 203 206 190 157 141 122 124 115 108 119 108 85 71 266 245 58 64 121 109 47 299 281 312 252 243 247 215 244 295 302 295 140 159 233 231 238 260 265 268 278 250 173 200 238 252 249 240 240 238 238 241 240 241
284 277 272 271 272 272 274 276 281 285 291 299 299 301 308 310 302 286 269 253 232 218 239 249 196 201 256 235 216 217 175 190 194 184 186 188 193 185 162 132 122 120 78 64 110 96 61 20 84 297 355 63 152 129 179 238 223 224 215 231 269 258 235 245 273 273 144 190 235 240 254 261 269 272 273 262 206 220 247 249 252 249 242 239 237 237 239 237
297 288 278 272 269 269 270 271 276 279 287 293 295 304 312 307 291 277 224 205 170 148 225 215 183 181 244 227 189 137 131 153 163 172 177 171 170 168 150 113 109 114 98 88 228 150 142 62 76 221 223 192 199 183 204 220 193 200 201 197 240 268 258 227 241 245 168 204 245 234 252 266 275 279 279 275 217 212 245 246 247 249 242 242 238 236 237 234
305 297 289 280 270 267 266 267 269 272 279 284 299 317 327 333 315 324 230 215 222 241 270 192 193 213 290 242 134 128 129 137 154 177 177 171 157 150 128 91 79 71 160 170 194 198 138 141 226 229 208 204 211 203 209 208 157 163 169 204 230 244 269 247 225 263 168 198 257 240 255 269 275 278 279 281 265 236 248 248 247 244 239 239 236 238 233 231
314 304 298 290 278 269 263 263 263 261 268 273 298 333 4 44 312 315 312 257 245 254 273 244 211 241 274 158 149 149 134 140 256 198 179 174 152 150 185 141 125 223 212 164 142 155 116 181 238 233 208 209 213 202 204 180 152 179 186 229 258 226 259 277 128 262 179 190 271 280 285 276 275 278 279 283 283 267 254 245 248 242 237 237 231 235 231 227
318 314 306 296 289 277 263 260 257 252 252 259 275 237 202 240 207 311 336 282 261 243 252 257 241 256 266 235 179 169 128 181 250 229 179 171 156 178 195 149 175 207 185 140 124 142 145 227 245 231 179 160 138 172 187 185 181 197 165 197 269 235 263 301 1 347 27 189 278 317 304 282 280 280 277 280 275 269 259 236 241 237 231 231 224 229 221 198
319 317 314 304 296 285 267 258 250 240 235 237 229 195 231 236 196 279 339 288 280 236 229 240 231 235 236 254 228 186 184 203 218 227 180 166 168 195 171 172 199 178 154 182 182 176 191 239 246 208 147 142 121 144 158 162 183 192 165 173 247 235 244 288 308 337 273 214 273 302 296 283 286 287 279 276 259 267 277 247 241 229 225 229 221 219 203 183
325 317 318 311 299 292 271 253 235 222 229 229 230 235 257 255 226 267 331 277 276 243 219 220 216 218 213 227 210 182 208 214 200 213 181 169 154 157 177 182 181 179 201 204 196 202 222 234 203 135 154 160 156 164 157 164 221 228 202 202 233 230 208 240 290 319 300 319 299 296 299 282 288 303 288 292 290 285 303 292 266 243 234 233 205 203 195 185
333 323 319 313 306 299 263 233 213 212 221 219 237 253 257 252 235 235 157 319 280 266 234 216 208 218 206 198 177 170 204 224 209 194 178 176 162 144 198 176 166 214 211 194 196 225 241 225 127 125 163 162 157 195 191 179 210 268 229 212 215 197 182 215 349 357 360 339 302 0 339 287 290 293 268 285 316 299 315 318 271 251 233 201 175 179 174 173
336 331 324 316 314 300 229 207 212 205 202 213 233 247 221 194 175 178 151 348 281 259 180 199 181 190 189 172 158 145 162 245 223 162 170 183 182 146 174 177 193 223 189 161 195 233 250 200 135 141 164 171 182 225 217 175 168 269 253 205 180 133 128 133 62 36 352 276 275 68 72 271 300 290 263 287 317 295 303 298 264 254 228 193 181 180 168 163
337 334 329 322 318 288 204 196 199 186 184 224 216 206 192 174 154 183 152 355 272 197 122 196 138 154 172 174 159 136 204 261 63 121 164 186 204 150 189 193 179 212 161 127 233 239 144 139 143 145 148 170 202 235 211 162 150 237 255 128 127 123 138 150 122 133 220 276 309 33 146 255 296 280 272 324 316 294 292 276 258 246 231 214 195 188 181 178
342 337 332 324 318 289 246 228 172 176 195 180 171 164 160 146 139 171 66 267 261 83 104 261 33 47 40 147 149 124 225 302 78 171 339 143 209 206 223 212 177 193 172 155 224 260 116 165 183 164 155 188 209 223 182 159 157 232 193 114 116 130 143 140 117 138 247 351 316 290 134 225 271 269 298 328 291 290 282 259 245 233 230 218 200 195 193 192
344 340 335 325 315 298 262 236 199 196 198 161 143 141 138 131 119 76 61 231 288 51 127 78 78 354 24 124 176 47 18 14 94 270 349 64 213 65 206 213 154 195 217 194 228 273 88 198 188 159 171 203 207 247 176 170 178 185 138 92 70 79 87 92 105 117 62 12 265 234 163 202 271 275 297 303 243 261 262 257 243 232 231 212 200 201 202 201
340 337 337 330 316 304 263 234 225 211 189 159 142 136 129 124 96 75 223 235 341 305 215 46 51 341 51 129 260 357 36 8 0 352 19 129 345 20 197 176 107 150 260 287 260 251 347 306 173 157 186 186 139 74 145 158 142 130 108 73 55 48 49 55 66 86 79 275 259 230 175 168 289 275 245 211 220 211 214 252 252 238 232 215 208 205 201 200
336 333 333 329 317 307 277 230 220 208 184 154 142 134 120 94 83 133 217 251 2 296 54 32 8 31 72 117 236 344 48 11 350 41 90 141 52 28 1 149 104 92 275 282 276 266 355 359 226 226 174 142 105 75 39 58 106 112 96 92 90 353 14 22 1 51 139 251 258 239 181 164 240 260 248 238 251 212 188 211 215 213 217 213 213 210 203 198
334 333 327 322 316 298 274 247 222 204 175 151 145 135 111 104 177 186 238 323 337 224 106 81 97 92 97 94 301 251 115 352 340 103 143 160 175 197 210 196 165 139 242 239 238 299 267 218 223 276 184 151 123 97 40 7 63 103 104 107 116 308 330 318 297 214 218 247 242 160 179 225 237 253 260 260 262 241 213 211 202 199 204 209 212 211 206 200
332 332 324 317 314 291 277 267 233 195 165 153 150 121 133 185 201 193 208 248 225 218 119 139 123 124 134 72 307 219 187 216 187 157 180 148 175 234 247 244 217 186 237 215 201 211 263 269 194 181 235 185 164 160 170 202 174 158 148 137 147 173 243 252 254 261 253 248 222 186 205 257 269 266 249 244 251 246 221 218 210 196 197 204 207 204 200 202
331 330 324 314 308 290 276 264 230 188 165 160 154 121 193 217 203 184 199 211 216 280 147 152 119 123 149 175 221 194 171 237 180 158 173 143 159 244 253 252 244 245 33 196 198 188 218 269 201 177 204 187 183 187 160 145 157 177 159 140 161 167 187 227 221 215 243 253 265 277 236 210 220 266 247 233 252 268 236 225 219 209 206 194 186 187 190 204
329 329 325 315 306 297 275 250 220 187 167 160 166 186 205 223 211 185 205 200 193 195 183 158 117 136 226 225 225 208 193 235 173 141 177 176 181 208 204 219 215 195 173 212 215 179 214 255 237 202 271 170 180 192 108 118 146 198 127 116 193 193 165 197 203 177 173 272 250 231 245 228 213 270 277 257 262 266 242 227 214 214 213 158 165 190 193 205
329 330 327 313 306 305 287 241 204 183 169 162 199 207 211 223 212 200 211 186 186 170 151 125 111 157 240 232 227 235 206 222 174 149 210 204 206 212 200 208 199 190 194 200 201 175 213 268 304 356 354 156 172 159 124 149 179 169 139 179 217 172 120 120 239 94 78 253 250 189 238 281 305 286 291 323 285 268 236 214 206 205 197 171 191 203 199 206
329 327 320 313 319 315 291 228 193 180 172 179 209 218 217 226 212 208 224 162 199 163 145 169 179 163 193 218 216 205 183 208 180 167 208 214 228 214 205 222 200 194 200 203 217 206 192 250 271 134 145 210 172 119 87 339 145 134 186 220 199 117 96 108 220 355 40 251 268 201 217 265 291 278 319 10 312 270 236 210 211 219 210 209 219 212 203 209
322 315 303 320 343 336 287 214 188 181 185 200 220 236 221 233 233 214 220 124 140 181 155 196 200 161 171 191 198 180 175 189 176 171 196 221 240 192 180 211 207 203 205 201 228 251 184 229 271 140 193 247 117 110 101 294 145 141 217 233 120 149 172 119 167 210 215 246 281 268 233 247 232 233 280 267 235 234 227 207 210 224 218 219 228 222 213 213
319 310 296 346 5 353 261 203 185 184 211 206 222 229 211 237 255 246 270 93 174 200 194 218 223 186 175 175 170 166 176 183 175 182 200 213 238 195 171 206 219 210 200 188 207 252 185 224 260 226 217 244 57 149 183 201 201 103 296 300 13 165 174 163 165 168 187 222 274 294 284 235 231 215 205 227 224 211 206 200 209 218 213 217 224 215 208 207
325 316 259 346 2 350 226 190 179 201 226 219 233 235 229 248 241 237 244 245 256 224 211 230 217 199 187 181 181 174 182 188 177 183 204 213 249 238 200 201 198 195 188 186 205 250 203 245 248 327 300 222 184 208 193 188 191 174 170 205 210 175 141 181 217 133 144 183 206 277 271 241 235 197 189 217 222 203 195 195 210 216 210 218 222 209 201 201
324 327 236 342 351 342 177 157 347 245 228 258 259 267 306 299 288 276 240 226 240 254 208 212 216 206 190 192 207 186 176 188 173 174 207 218 233 240 218 184 161 141 144 176 212 220 201 239 216 149 223 219 223 243 190 171 182 171 181 204 193 176 129 138 251 216 124 187 178 208 266 255 225 194 205 217 210 199 196 193 205 213 210 218 222 209 201 197
332 323 283 321 331 300 151 130 279 239 250 273 273 293 327 331 333 321 278 243 240 256 274 251 227 217 200 199 208 182 165 179 177 183 219 221 219 224 208 156 162 160 143 167 222 209 161 164 171 183 217 213 232 284 92 106 135 155 214 224 170 178 144 158 226 221 168 231 164 139 275 270 201 208 227 228 212 198 197 194 199 209 210 217 219 207 202 203
331 290 294 312 305 188 151 254 247 246 259 270 304 327 341 342 326 319 312 275 245 221 236 270 231 225 225 205 186 170 165 185 196 207 232 234 233 233 199 159 164 170 164 197 233 183 141 169 203 247 284 331 9 11 57 55 74 166 234 205 183 211 209 189 203 172 186 215 141 165 260 260 36 278 248 241 231 191 192 198 198 204 210 219 217 201 196 205
301 282 291 313 279 202 185 222 235 261 268 278 311 324 328 308 262 296 299 275 279 261 233 237 222 225 226 197 183 183 180 190 214 221 230 238 244 235 196 184 183 182 186 208 204 186 184 189 201 225 268 303 337 350 295 336 176 215 223 202 207 213 200 181 117 125 235 207 165 202 252 244 324 291 273 231 206 191 213 217 199 196 207 216 216 201 193 200
324 287 269 304 283 232 211 191 236 286 306 325 328 323 317 289 213 248 275 275 282 287 280 272 247 240 234 198 198 201 195 206 225 221 220 236 252 252 217 211 203 199 212 281 293 216 193 180 189 200 219 235 233 211 216 190 169 232 218 197 207 203 194 186 130 197 234 207 176 210 248 249 246 265 252 230 217 217 233 236 222 215 218 215 209 199 189 192
345 312 299 311 312 294 294 6 53 23 351 346 329 307 301 313 301 252 239 265 265 249 265 285 287 291 274 212 221 228 219 221 227 223 221 230 240 250 233 212 203 208 254 325 3 77 172 202 198 200 218 232 234 223 205 150 159 207 206 201 204 203 199 188 169 209 198 185 215 218 235 255 259 253 242 221 208 221 224 220 224 231 230 222 212 204 193 191
64 302 320 325 333 335 318 360 36 22 337 318 307 294 298 317 318 293 209 242 289 286 267 266 270 274 243 216 227 233 228 225 223 231 242 238 241 271 298 219 208 208 205 295 338 114 144 231 208 205 225 240 247 241 213 177 208 214 208 207 205 200 194 192 217 218 146 174 243 202 199 250 256 253 252 240 206 215 221 212 215 221 225 221 206 199 198 198
2 298 329 42 356 331 321 338 346 332 312 294 266 283 294 301 310 307 274 289 338 343 326 303 261 250 240 233 238 237 230 231 226 227 239 243 243 257 270 248 223 209 182 192 300 129 155 237 220 215 235 247 253 249 226 224 238 228 219 218 207 197 191 200 222 218 172 214 238 170 193 236 246 250 258 253 210 211 220 215 216 217 214 204 191 196 201 201
332 288 305 2 67 306 306 316 319 308 301 311 298 274 290 296 295 301 319 346 340 328 311 297 290 289 286 278 272 258 238 234 229 218 225 236 234 236 246 241 233 210 181 185 215 137 160 241 239 228 244 250 249 244 223 221 241 246 237 228 213 204 201 207 221 218 209 229 244 214 232 245 245 246 257 258 184 199 216 215 216 219 208 192 196 205 206 204
350 326 318 334 309 286 284 295 305 296 299 314 296 279 286 287 292 317 352 341 317 309 304 307 318 326 322 314 309 293 278 274 268 248 230 231 229 219 226 229 222 226 190 189 203 189 201 232 213 173 245 253 246 240 226 215 228 243 243 233 222 219 217 220 225 222 225 238 255 274 267 260 250 248 264 272 205 187 208 215 213 217 207 195 204 211 210 209
321 314 296 297 300 295 282 279 296 299 303 286 251 279 292 292 319 338 328 281 256 274 310 336 331 326 318 316 315 304 299 296 291 290 280 258 249 234 221 213 200 200 203 189 180 176 198 224 135 140 232 253 244 233 228 220 234 252 252 239 229 223 217 220 220 214 218 226 234 247 253 255 256 254 264 264 234 196 215 222 215 216 207 200 213 218 215 212
324 316 295 260 287 292 288 293 280 265 275 253 257 299 306 309 331 334 315 284 233 275 324 336 325 320 313 307 303 304 315 310 290 292 292 288 291 289 289 286 194 194 185 179 187 178 188 210 215 187 223 250 243 216 203 214 278 260 249 231 225 225 221 224 226 219 216 215 217 231 240 249 260 257 255 261 252 229 232 227 210 215 214 213 221 221 219 216